Location: Plzen
(49.7500°N, 13.3670°E)
Time: 19:25:42
(UTC+02:00)

ISS - Pass Details

Date: 25 May 2021
Orbit: 417 x 422 km, 51.6° (Epoch: 16 June)

Event Time Altitude Azimuth Distance (km) Brightness Sun altitude
Rises 23:48:48 0° 287° (WNW) 2,369 0.6 -17.2°
Reaches altitude 10° 23:51:02 10° 277° (W) 1,503 -0.6 -17.3°
Enters shadow 23:53:41 30° 227° (SW) 791 -2.6 -17.5°
